Previsão horária em Abbevillers

Hoje, 25 Janeiro, Segunda-feira

Tempo Temperatura Precipitação Vento Pressão Humidade
00:00 -2°C° 0 mm 4 m/s 700 mmHg 96%
01:00 -2°C° 0.7 mm 4 m/s 700 mmHg 96%
02:00 -2°C° 0.7 mm 4 m/s 700 mmHg 96%
03:00 -2°C° 0.7 mm 5 m/s 700 mmHg 96%
04:00 -4°C° 0.4 mm 5 m/s 701 mmHg 95%
05:00 -4°C° 0.4 mm 5 m/s 701 mmHg 94%
06:00 -4°C° 0.4 mm 6 m/s 701 mmHg 92%
07:00 -4°C° 0.1 mm 5 m/s 702 mmHg 92%
08:00 -4°C° 0.1 mm 5 m/s 702 mmHg 91%
09:00 -3°C° 0.1 mm 4 m/s 703 mmHg 90%
10:00 -3°C° 0.3 mm 4 m/s 703 mmHg 92%
11:00 -4°C° 0.3 mm 5 m/s 703 mmHg 93%
12:00 -2°C° 0.3 mm 5 m/s 704 mmHg 94%
13:00 -2°C° 0.3 mm 4 m/s 704 mmHg 94%
14:00 -3°C° 0.3 mm 4 m/s 705 mmHg 94%
15:00 -3°C° 0.3 mm 4 m/s 705 mmHg 93%
16:00 -2°C° 0.1 mm 3 m/s 706 mmHg 94%
17:00 -3°C° 0.1 mm 2 m/s 707 mmHg 95%
18:00 -4°C° 0.1 mm 2 m/s 707 mmHg 95%
19:00 -4°C° 0.1 mm 2 m/s 708 mmHg 95%
20:00 -4°C° 0.1 mm 2 m/s 709 mmHg 96%
21:00 -4°C° 0.1 mm 2 m/s 710 mmHg 96%
22:00 -4°C° 0.1 mm 2 m/s 711 mmHg 96%
23:00 -4°C° 0.1 mm 2 m/s 711 mmHg 96%

Amanhã, 26 Janeiro, Terça-feira

Tempo Temperatura Precipitação Vento Pressão Humidade
00:00 -4°C° 0.1 mm 2 m/s 712 mmHg 96%
01:00 -5°C° 0 mm 2 m/s 712 mmHg 96%
02:00 -5°C° 0 mm 2 m/s 713 mmHg 96%
03:00 -6°C° 0 mm 2 m/s 713 mmHg 96%
04:00 -5°C° 0.1 mm 2 m/s 714 mmHg 95%
05:00 -5°C° 0.1 mm 2 m/s 714 mmHg 95%
06:00 -5°C° 0.1 mm 3 m/s 715 mmHg 94%
07:00 -5°C° 0.1 mm 3 m/s 716 mmHg 93%
08:00 -5°C° 0.1 mm 3 m/s 716 mmHg 92%
09:00 -4°C° 0.1 mm 3 m/s 716 mmHg 91%
10:00 -4°C° 0.1 mm 3 m/s 716 mmHg 90%
11:00 -3°C° 0.1 mm 4 m/s 717 mmHg 88%
12:00 -2°C° 0.1 mm 4 m/s 717 mmHg 87%
13:00 -1°C° 0.1 mm 3 m/s 717 mmHg 88%
14:00 -1°C° 0.1 mm 3 m/s 716 mmHg 88%
15:00 -1°C° 0.1 mm 2 m/s 716 mmHg 89%
16:00 -2°C° 0 mm 2 m/s 717 mmHg 90%
17:00 -3°C° 0 mm 2 m/s 717 mmHg 91%
18:00 -4°C° 0 mm 2 m/s 717 mmHg 93%
19:00 -2°C° 0 mm 1 m/s 717 mmHg 91%
20:00 -2°C° 0 mm 1 m/s 718 mmHg 90%
21:00 -2°C° 0 mm 1 m/s 718 mmHg 88%
22:00 -3°C° 0 mm 1 m/s 718 mmHg 88%
23:00 -3°C° 0 mm 1 m/s 717 mmHg 88%

Depois de amanhã, 27 Janeiro, Quarta-feira

Tempo Temperatura Precipitação Vento Pressão Humidade
00:00 -3°C° 0 mm 1 m/s 717 mmHg 89%
01:00 -3°C° 0 mm 1 m/s 717 mmHg 88%
02:00 -2°C° 0 mm 1 m/s 716 mmHg 87%
03:00 -2°C° 0 mm 1 m/s 716 mmHg 87%
04:00 -2°C° 0 mm 1 m/s 716 mmHg 86%
05:00 -2°C° 0 mm 1 m/s 715 mmHg 86%
06:00 -2°C° 0 mm 1 m/s 715 mmHg 85%
07:00 -1°C° 0 mm 1 m/s 715 mmHg 83%
08:00 -1°C° 0 mm 1 m/s 715 mmHg 81%
09:00 0°C° 0 mm 1 m/s 715 mmHg 79%
10:00 +1°C° 0 mm 1 m/s 715 mmHg 78%
11:00 +1°C° 0 mm 2 m/s 715 mmHg 77%
12:00 +2°C° 0 mm 2 m/s 715 mmHg 76%
13:00 +2°C° 0 mm 2 m/s 714 mmHg 80%
14:00 +2°C° 0 mm 2 m/s 714 mmHg 83%
15:00 +1°C° 0 mm 2 m/s 714 mmHg 87%
16:00 +1°C° 0.2 mm 2 m/s 714 mmHg 90%
17:00 +2°C° 0.2 mm 1 m/s 714 mmHg 94%
18:00 +2°C° 0.2 mm 1 m/s 714 mmHg 97%
19:00 +2°C° 0.2 mm 1 m/s 714 mmHg 97%
20:00 +1°C° 0.2 mm 2 m/s 713 mmHg 96%
21:00 +1°C° 0.2 mm 2 m/s 713 mmHg 96%
22:00 +2°C° 0.2 mm 2 m/s 713 mmHg 96%
23:00 +2°C° 0.2 mm 2 m/s 713 mmHg 97%

28 Janeiro, Quinta-feira

Tempo Temperatura Precipitação Vento Pressão Humidade
00:00 +2°C° 0.2 mm 2 m/s 712 mmHg 97%
01:00 +2°C° 0.8 mm 2 m/s 712 mmHg 97%
02:00 +3°C° 0.8 mm 2 m/s 711 mmHg 98%
03:00 +3°C° 0.8 mm 2 m/s 711 mmHg 98%
04:00 +3°C° 1.7 mm 3 m/s 710 mmHg 98%
05:00 +3°C° 1.7 mm 3 m/s 710 mmHg 97%
06:00 +3°C° 1.7 mm 4 m/s 709 mmHg 97%
07:00 +4°C° 0.8 mm 4 m/s 709 mmHg 97%
08:00 +3°C° 0.8 mm 5 m/s 709 mmHg 97%
09:00 +5°C° 0.8 mm 5 m/s 709 mmHg 96%
10:00 +4°C° 1.3 mm 6 m/s 709 mmHg 96%
11:00 +4°C° 1.3 mm 6 m/s 709 mmHg 96%
12:00 +5°C° 1.3 mm 6 m/s 709 mmHg 96%
13:00 +6°C° 0.3 mm 5 m/s 710 mmHg 96%
14:00 +6°C° 0.3 mm 5 m/s 710 mmHg 96%
15:00 +6°C° 0.3 mm 5 m/s 710 mmHg 96%
16:00 +6°C° 0.1 mm 5 m/s 710 mmHg 96%
17:00 +6°C° 0.1 mm 4 m/s 711 mmHg 96%
18:00 +6°C° 0.1 mm 4 m/s 711 mmHg 96%
19:00 +5°C° 0.1 mm 4 m/s 712 mmHg 95%
20:00 +5°C° 0.1 mm 4 m/s 712 mmHg 95%
21:00 +5°C° 0.1 mm 4 m/s 712 mmHg 95%
22:00 +5°C° 0.1 mm 4 m/s 712 mmHg 94%
23:00 +5°C° 0.1 mm 4 m/s 711 mmHg 93%

29 Janeiro, Sexta-feira

Tempo Temperatura Precipitação Vento Pressão Humidade
00:00 +6°C° 0.1 mm 4 m/s 711 mmHg 92%
01:00 +6°C° 0.1 mm 4 m/s 711 mmHg 91%
02:00 +6°C° 0.1 mm 4 m/s 710 mmHg 90%
03:00 +6°C° 0.1 mm 4 m/s 709 mmHg 90%
04:00 +6°C° 1.2 mm 5 m/s 708 mmHg 90%
05:00 +5°C° 1.2 mm 6 m/s 708 mmHg 90%
06:00 +6°C° 1.2 mm 7 m/s 707 mmHg 90%
07:00 +6°C° 1 mm 7 m/s 707 mmHg 91%
08:00 +6°C° 1 mm 7 m/s 707 mmHg 92%
09:00 +7°C° 1 mm 6 m/s 707 mmHg 93%
10:00 +7°C° 1.8 mm 6 m/s 707 mmHg 93%
11:00 +7°C° 1.8 mm 6 m/s 707 mmHg 93%
12:00 +7°C° 1.8 mm 6 m/s 707 mmHg 93%
13:00 +7°C° 0.9 mm 6 m/s 707 mmHg 92%
14:00 +7°C° 0.9 mm 5 m/s 707 mmHg 91%
15:00 +7°C° 0.9 mm 5 m/s 706 mmHg 90%
16:00 +6°C° 0.2 mm 4 m/s 706 mmHg 92%
17:00 +6°C° 0.2 mm 4 m/s 707 mmHg 93%
18:00 +5°C° 0.2 mm 4 m/s 707 mmHg 95%
19:00 +5°C° 0.1 mm 3 m/s 707 mmHg 95%
20:00 +4°C° 0.1 mm 3 m/s 707 mmHg 95%
21:00 +5°C° 0.1 mm 2 m/s 707 mmHg 96%
22:00 +5°C° 0.2 mm 2 m/s 707 mmHg 96%
23:00 +5°C° 0.2 mm 2 m/s 708 mmHg 96%

30 Janeiro, Sábado

Tempo Temperatura Precipitação Vento Pressão Humidade
00:00 +4°C° 0.2 mm 3 m/s 708 mmHg 96%
01:00 +3°C° 0.5 mm 3 m/s 708 mmHg 95%
02:00 +3°C° 0.5 mm 3 m/s 708 mmHg 95%
03:00 +3°C° 0.5 mm 3 m/s 708 mmHg 94%
04:00 +3°C° 0.1 mm 3 m/s 708 mmHg 94%
05:00 +3°C° 0.1 mm 3 m/s 708 mmHg 94%
06:00 +3°C° 0.1 mm 4 m/s 708 mmHg 94%
07:00 +3°C° 0.1 mm 4 m/s 708 mmHg 92%
08:00 +2°C° 0.1 mm 5 m/s 708 mmHg 90%
09:00 +2°C° 0.1 mm 5 m/s 708 mmHg 88%
10:00 +2°C° 0.2 mm 5 m/s 708 mmHg 86%
11:00 +3°C° 0.2 mm 5 m/s 708 mmHg 85%
12:00 +3°C° 0.2 mm 6 m/s 708 mmHg 83%
13:00 +3°C° 0.3 mm 5 m/s 708 mmHg 85%
14:00 +3°C° 0.3 mm 5 m/s 708 mmHg 87%
15:00 +3°C° 0.3 mm 4 m/s 708 mmHg 89%
16:00 +3°C° 0.2 mm 4 m/s 709 mmHg 91%
17:00 +2°C° 0.2 mm 3 m/s 709 mmHg 92%
18:00 +3°C° 0.2 mm 2 m/s 709 mmHg 94%
19:00 +3°C° 0.1 mm 2 m/s 710 mmHg 94%
20:00 +3°C° 0.1 mm 2 m/s 710 mmHg 94%
21:00 +2°C° 0.1 mm 2 m/s 710 mmHg 94%
22:00 +2°C° 0.1 mm 2 m/s 710 mmHg 94%
23:00 +2°C° 0.1 mm 2 m/s 710 mmHg 94%
Mostrar mais